| time (UTC) | temp F | wind direction | speed MPH | gust MPH | rain 1hr in | rain 24hr in | rain mn in | humidity % | barometer mb |
| 20260906054607 | 82 | 168 | 9.0 | 14.0 | 0.00 | 0.00 | 0.00 | 53 | 1016.7 |
| 20260906053101 | 82 | 168 | 10.0 | 16.0 | 0.00 | 0.00 | 0.00 | 52 | 1016.8 |
| 20260906051608 | 82 | 169 | 10.0 | 18.0 | 0.00 | 0.00 | 0.00 | 52 | 1016.6 |
| 20260906050107 | 83 | 154 | 14.0 | 21.0 | 0.00 | 0.00 | 0.00 | 52 | 1016.7 |
| 20260906044602 | 83 | 150 | 16.0 | 24.0 | 0.00 | 0.00 | 0.00 | 51 | 1016.6 |
| 20260906043101 | 84 | 158 | 17.0 | 26.0 | 0.00 | 0.00 | 0.00 | 50 | 1016.5 |
| 20260906041619 | 86 | 139 | 16.0 | 24.0 | 0.00 | 0.00 | 0.00 | 47 | 1016.4 |
| 20260906040113 | 86 | 128 | 9.0 | 12.0 | 0.00 | 0.00 | 0.00 | 43 | 1016.0 |
| 20260906034603 | 87 | 125 | 8.0 | 14.0 | 0.00 | 0.00 | 0.00 | 42 | 1015.9 |
| 20260906033104 | 87 | 126 | 9.0 | 13.0 | 0.00 | 0.00 | 0.00 | 42 | 1015.8 |
| 20260906031609 | 88 | 129 | 8.0 | 12.0 | 0.00 | 0.00 | 0.00 | 42 | 1015.6 |
| 20260906024624 | 89 | 115 | 9.0 | 14.0 | 0.00 | 0.00 | 0.00 | 39 | 1015.2 |
| 20260906023104 | 89 | 126 | 10.0 | 16.0 | 0.00 | 0.00 | 0.00 | 38 | 1014.7 |
| 20260906021611 | 90 | 110 | 10.0 | 14.0 | 0.00 | 0.00 | 0.00 | 36 | 1014.5 |
| 20260906020103 | 90 | 111 | 10.0 | 14.0 | 0.00 | 0.00 | 0.00 | 36 | 1014.3 |
| 20260906014609 | 91 | 112 | 9.0 | 14.0 | 0.00 | 0.00 | 0.00 | 35 | 1014.2 |
| 20260906013103 | 91 | 114 | 11.0 | 15.0 | 0.00 | 0.00 | 0.00 | 35 | 1014.1 |
| 20260906011601 | 92 | 126 | 11.0 | 15.0 | 0.00 | 0.00 | 0.00 | 34 | 1014.2 |
| 20260906010116 | 93 | 107 | 11.0 | 16.0 | 0.00 | 0.00 | 0.00 | 33 | 1014.1 |
| 20260906004610 | 93 | 109 | 8.0 | 17.0 | 0.00 | 0.00 | 0.00 | 31 | 1014.1 |
| 20260906003113 | 94 | 105 | 8.0 | 16.0 | 0.00 | 0.00 | 0.00 | 30 | 1014.1 |
| 20260906001605 | 94 | 93 | 9.0 | 17.0 | 0.00 | 0.00 | 0.00 | 30 | 1013.8 |
| 20260906000106 | 95 | 82 | 11.0 | 17.0 | 0.00 | 0.00 | 0.00 | 29 | 1013.8 |
| 20260905234609 | 95 | 136 | 10.0 | 17.0 | 0.00 | 0.00 | 0.00 | 30 | 1013.7 |
| 20260905233100 | 95 | 109 | 7.0 | 18.0 | 0.00 | 0.00 | 0.00 | 30 | 1013.6 |
| 20260905231603 | 95 | 119 | 9.0 | 18.0 | 0.00 | 0.00 | 0.00 | 31 | 1013.6 |
| 20260905230106 | 95 | 103 | 8.0 | 20.0 | 0.00 | 0.00 | 0.00 | 30 | 1013.6 |
| 20260905224556 | 95 | 67 | 8.0 | 17.0 | 0.00 | 0.00 | 0.00 | 32 | 1013.5 |
| 20260905223104 | 95 | 95 | 7.0 | 15.0 | 0.00 | 0.00 | 0.00 | 33 | 1013.7 |
| 20260905221557 | 95 | 108 | 11.0 | 22.0 | 0.00 | 0.00 | 0.00 | 33 | 1013.6 |
| 20260905220110 | 94 | 92 | 8.0 | 17.0 | 0.00 | 0.00 | 0.00 | 34 | 1013.6 |
| 20260905214603 | 95 | 76 | 6.0 | 16.0 | 0.00 | 0.00 | 0.00 | 33 | 1013.7 |
| 20260905213104 | 95 | 63 | 12.0 | 19.0 | 0.00 | 0.00 | 0.00 | 33 | 1013.8 |
| 20260905211608 | 94 | 59 | 4.0 | 16.0 | 0.00 | 0.00 | 0.00 | 34 | 1014.2 |
| 20260905204603 | 95 | 98 | 11.0 | 15.0 | 0.00 | 0.00 | 0.00 | 34 | 1015.0 |
| 20260905203101 | 94 | 83 | 11.0 | 18.0 | 0.00 | 0.00 | 0.00 | 35 | 1015.3 |
| 20260905201600 | 94 | 140 | 8.0 | 16.0 | 0.00 | 0.00 | 0.00 | 34 | 1015.4 |
| 20260905200108 | 93 | 91 | 8.0 | 16.0 | 0.00 | 0.00 | 0.00 | 35 | 1015.7 |
| 20260905194600 | 94 | 117 | 9.0 | 17.0 | 0.00 | 0.00 | 0.00 | 36 | 1015.9 |
| 20260905193110 | 93 | 128 | 10.0 | 16.0 | 0.00 | 0.00 | 0.00 | 37 | 1016.0 |
| 20260905191611 | 93 | 101 | 9.0 | 17.0 | 0.00 | 0.00 | 0.00 | 37 | 1016.2 |
| 20260905190107 | 93 | 167 | 11.0 | 18.0 | 0.00 | 0.00 | 0.00 | 38 | 1016.4 |
| 20260905184611 | 92 | 150 | 4.0 | 15.0 | 0.00 | 0.00 | 0.00 | 39 | 1016.6 |
| 20260905183105 | 92 | 101 | 9.0 | 16.0 | 0.00 | 0.00 | 0.00 | 37 | 1016.8 |
| 20260905181608 | 91 | 147 | 9.0 | 13.0 | 0.00 | 0.00 | 0.00 | 41 | 1017.0 |
| 20260905180108 | 90 | 157 | 4.0 | 11.0 | 0.00 | 0.00 | 0.00 | 43 | 1017.1 |
| 20260905174601 | 90 | 148 | 4.0 | 11.0 | 0.00 | 0.00 | 0.00 | 44 | 1017.4 |
| 20260905173103 | 89 | 157 | 5.0 | 14.0 | 0.00 | 0.00 | 0.00 | 46 | 1017.4 |
| 20260905171603 | 88 | 109 | 6.0 | 11.0 | 0.00 | 0.00 | 0.00 | 48 | 1017.5 |
| 20260905170105 | 87 | 182 | 3.0 | 9.0 | 0.00 | 0.00 | 0.00 | 50 | 1017.5 |
| 20260905164603 | 87 | 132 | 4.0 | 12.0 | 0.00 | 0.00 | 0.00 | 51 | 1017.4 |
| 20260905163108 | 85 | 156 | 3.0 | 13.0 | 0.00 | 0.00 | 0.00 | 54 | 1017.2 |
| 20260905161619 | 84 | 209 | 6.0 | 11.0 | 0.00 | 0.00 | 0.00 | 55 | 1017.3 |
| 20260905160117 | 84 | 153 | 6.0 | 17.0 | 0.00 | 0.00 | 0.00 | 57 | 1017.1 |
| 20260905154605 | 83 | 162 | 7.0 | 14.0 | 0.00 | 0.00 | 0.00 | 58 | 1017.0 |
| 20260905153104 | 82 | 157 | 8.0 | 14.0 | 0.00 | 0.00 | 0.00 | 60 | 1017.1 |
| 20260905151606 | 81 | 165 | 8.0 | 14.0 | 0.00 | 0.00 | 0.00 | 61 | 1017.0 |
| 20260905150112 | 80 | 168 | 9.0 | 14.0 | 0.00 | 0.00 | 0.00 | 62 | 1017.1 |
| 20260905144609 | 79 | 169 | 7.0 | 14.0 | 0.00 | 0.00 | 0.00 | 64 | 1016.9 |
| 20260905143110 | 78 | 159 | 11.0 | 15.0 | 0.00 | 0.00 | 0.00 | 65 | 1017.1 |
| 20260905141605 | 77 | 157 | 11.0 | 16.0 | 0.00 | 0.00 | 0.00 | 67 | 1016.9 |
| 20260905140107 | 76 | 159 | 11.0 | 15.0 | 0.00 | 0.00 | 0.00 | 68 | 1017.0 |
| 20260905134609 | 76 | 134 | 11.0 | 16.0 | 0.00 | 0.00 | 0.00 | 69 | 1016.9 |
| 20260905133106 | 75 | 148 | 10.0 | 13.0 | 0.00 | 0.00 | 0.00 | 70 | 1016.8 |
| 20260905131605 | 75 | 133 | 9.0 | 11.0 | 0.00 | 0.00 | 0.00 | 71 | 1016.4 |
| 20260905130104 | 74 | 124 | 9.0 | 11.0 | 0.00 | 0.00 | 0.00 | 71 | 1016.3 |
| 20260905124600 | 74 | 138 | 9.0 | 11.0 | 0.00 | 0.00 | 0.00 | 71 | 1016.1 |
| 20260905123108 | 74 | 130 | 5.0 | 9.0 | 0.00 | 0.00 | 0.00 | 71 | 1016.1 |
| 20260905121601 | 74 | 128 | 4.0 | 10.0 | 0.00 | 0.00 | 0.00 | 70 | 1015.9 |
| 20260905120106 | 75 | 134 | 5.0 | 10.0 | 0.00 | 0.00 | 0.00 | 69 | 1015.8 |
| 20260905114603 | 75 | 141 | 7.0 | 12.0 | 0.00 | 0.00 | 0.00 | 69 | 1015.8 |
| 20260905113105 | 75 | 138 | 8.0 | 10.0 | 0.00 | 0.00 | 0.00 | 68 | 1015.7 |
| 20260905111645 | 75 | 126 | 4.0 | 8.0 | 0.00 | 0.00 | 0.00 | 67 | 1015.8 |
| 20260905110100 | 76 | 120 | 4.0 | 7.0 | 0.00 | 0.00 | 0.00 | 65 | 1016.0 |
| 20260905104559 | 76 | 115 | 5.0 | 9.0 | 0.00 | 0.00 | 0.00 | 64 | 1016.1 |
| 20260905103104 | 76 | 120 | 7.0 | 8.0 | 0.00 | 0.00 | 0.00 | 64 | 1016.2 |
| 20260905101602 | 77 | 122 | 4.0 | 7.0 | 0.00 | 0.00 | 0.00 | 64 | 1016.0 |
| 20260905100109 | 77 | 121 | 4.0 | 9.0 | 0.00 | 0.00 | 0.00 | 64 | 1016.0 |
| 20260905094604 | 78 | 142 | 6.0 | 10.0 | 0.00 | 0.00 | 0.00 | 63 | 1015.8 |
| 20260905093101 | 78 | 138 | 8.0 | 10.0 | 0.00 | 0.00 | 0.00 | 63 | 1015.7 |
| 20260905091610 | 78 | 156 | 5.0 | 8.0 | 0.00 | 0.00 | 0.00 | 62 | 1015.6 |
| 20260905084603 | 79 | 168 | 6.0 | 9.0 | 0.00 | 0.00 | 0.00 | 62 | 1015.4 |
| 20260905083058 | 78 | 166 | 6.0 | 9.0 | 0.00 | 0.00 | 0.00 | 62 | 1015.4 |
| 20260905081607 | 78 | 171 | 4.0 | 6.0 | 0.00 | 0.00 | 0.00 | 61 | 1015.2 |
| 20260905080105 | 79 | 167 | 4.0 | 7.0 | 0.00 | 0.00 | 0.00 | 61 | 1015.4 |
| 20260905074600 | 79 | 172 | 4.0 | 8.0 | 0.00 | 0.00 | 0.00 | 61 | 1015.6 |
| 20260905073104 | 78 | 164 | 5.0 | 7.0 | 0.00 | 0.00 | 0.00 | 61 | 1015.7 |
| 20260905071600 | 78 | 163 | 2.0 | 6.0 | 0.00 | 0.00 | 0.00 | 60 | 1015.9 |
| 20260905070105 | 78 | 169 | 3.0 | 7.0 | 0.00 | 0.00 | 0.00 | 61 | 1016.1 |
| 20260905064603 | 78 | 179 | 2.0 | 5.0 | 0.00 | 0.00 | 0.00 | 60 | 1015.9 |
| 20260905063104 | 79 | 186 | 5.0 | 7.0 | 0.00 | 0.00 | 0.00 | 59 | 1015.9 |
| 20260905061613 | 79 | 188 | 4.0 | 7.0 | 0.00 | 0.00 | 0.00 | 58 | 1016.0 |
| 20260905060108 | 80 | 184 | 3.0 | 5.0 | 0.00 | 0.00 | 0.00 | 57 | 1015.9 |